Погода в Сосновке

Россия / Хабаровский край     48°19′48″N   135°04′15″E
темп.,
°C
ветер,
м/с
пор.,
м/с
влажн.,
%
обл.,
%
осадки,
мм/ч
давл.,
гПа
погр.,
м
26 января, вт
вт2601:00−20св359889 0.0 1030141
04:00−19св359394 0.0 1027210
07:00−19всв3493100 0.1 1025168
10:00−18всв3496100 1.5 1023148
13:00−14всв2394100 1.3 1020177
16:00−13св2294100 2.7 1018133
19:00−15ссв2297100 0.8 101859
22:00−16ссв1298100 0.9 101738
27 января, ср
ср2701:00−18ссв1199100 0.1 101720
04:00−20ссз11100100 0.1 101620
07:00−21сз1199100 0.1 101623
10:00−20зюз129799 0.1 101896
13:00−16зюз238896 0.0 1018390
16:00−17зюз358091 0.0 1019523
19:00−22ююз239628 0.0 101922
22:00−21юз369761 0.1 1020203
28 января, чт
чт2801:00−24юз339776 0.0 102047
04:00−26юз349449 0.0 102174
07:00−28юз33940 0.0 102248
10:00−26юз23920 0.0 102396
13:00−20юз12770 0.0 1022395
16:00−19ююв11774 0.0 1020387
19:00−25ссв119323 0.0 102020
22:00−25ссв119361 0.0 102020
29 января, пт
пт2901:00−25ссв2295100 0.0 101947
04:00−25ссв3492100 0.0 101798
07:00−26с2395100 0.0 101696
10:00−24с2493100 0.0 1017193
13:00−22ссз3588100 0.0 1015392
16:00−21ссз3595100 0.3 1015462
19:00−21зсз1299100 0.4 101757
22:00−22з2398100 0.7 101890
30 января, сб
сб3001:00−22з2398100 0.3 1020157
04:00−23зюз2498100 0.6 1022177
07:00−25юз2394100 0.1 1024142
10:00−28ююз349395 0.1 1026131
13:00−25ююз33859 0.0 1026276
16:00−26ююз34874 0.0 1025260
19:00−30юз239236 0.0 102645
22:00−30ююз239453 0.0 102744